;"Summenlastgang 
aller Einspeisungen MS
+ Vorgelagertes Netz (eigenes und EWE)
+ dezentrale Erzeugung
- R�ckspeisung in UHM"
Arbeit;281.898.286
H�chstleistung;52.540
Ab Zeit;06.12.2023 17:45
01.01.2023 00:00;25.246
01.01.2023 00:15;26.387
01.01.2023 00:30;25.859
01.01.2023 00:45;25.524
01.01.2023 01:00;25.697
01.01.2023 01:15;22.390
01.01.2023 01:30;26.401
01.01.2023 01:45;23.141
01.01.2023 02:00;24.981
01.01.2023 02:15;22.377
01.01.2023 02:30;23.295
01.01.2023 02:45;24.139
01.01.2023 03:00;21.346
01.01.2023 03:15;22.928
01.01.2023 03:30;21.832
01.01.2023 03:45;21.045
01.01.2023 04:00;21.287
01.01.2023 04:15;19.775
01.01.2023 04:30;22.536
01.01.2023 04:45;21.193
01.01.2023 05:00;21.930
01.01.2023 05:15;20.155
01.01.2023 05:30;23.057
01.01.2023 05:45;21.690
01.01.2023 06:00;19.818
01.01.2023 06:15;22.187
01.01.2023 06:30;21.163
01.01.2023 06:45;23.462
01.01.2023 07:00;22.279
01.01.2023 07:15;22.641
01.01.2023 07:30;22.236
01.01.2023 07:45;22.648
01.01.2023 08:00;24.229
01.01.2023 08:15;24.536
01.01.2023 08:30;24.568
01.01.2023 08:45;24.583
01.01.2023 09:00;24.510
01.01.2023 09:15;26.439
01.01.2023 09:30;26.769
01.01.2023 09:45;27.629
01.01.2023 10:00;27.804
01.01.2023 10:15;28.878
01.01.2023 10:30;29.937
01.01.2023 10:45;29.915
01.01.2023 11:00;30.935
01.01.2023 11:15;31.453
01.01.2023 11:30;31.781
01.01.2023 11:45;31.020
01.01.2023 12:00;34.071
01.01.2023 12:15;33.821
01.01.2023 12:30;34.076
01.01.2023 12:45;34.310
01.01.2023 13:00;33.882
01.01.2023 13:15;33.424
01.01.2023 13:30;34.495
01.01.2023 13:45;33.196
01.01.2023 14:00;31.853
01.01.2023 14:15;33.272
01.01.2023 14:30;33.912
01.01.2023 14:45;31.927
01.01.2023 15:00;34.483
01.01.2023 15:15;34.234
01.01.2023 15:30;33.019
01.01.2023 15:45;35.407
01.01.2023 16:00;35.224
01.01.2023 16:15;35.587
01.01.2023 16:30;36.901
01.01.2023 16:45;38.103
01.01.2023 17:00;38.712
01.01.2023 17:15;39.609
01.01.2023 17:30;40.421
01.01.2023 17:45;39.184
01.01.2023 18:00;39.042
01.01.2023 18:15;38.181
01.01.2023 18:30;38.338
01.01.2023 18:45;38.199
01.01.2023 19:00;37.381
01.01.2023 19:15;37.902
01.01.2023 19:30;36.834
01.01.2023 19:45;36.025
01.01.2023 20:00;34.570
01.01.2023 20:15;34.879
01.01.2023 20:30;34.599
01.01.2023 20:45;33.350
01.01.2023 21:00;31.492
01.01.2023 21:15;30.680
01.01.2023 21:30;30.505
01.01.2023 21:45;30.508
01.01.2023 22:00;30.962
01.01.2023 22:15;29.939
01.01.2023 22:30;28.341
01.01.2023 22:45;27.008
01.01.2023 23:00;27.204
01.01.2023 23:15;26.083
01.01.2023 23:30;25.592
01.01.2023 23:45;24.578
02.01.2023 00:00;23.208
02.01.2023 00:15;23.166
02.01.2023 00:30;22.879
02.01.2023 00:45;22.144
02.01.2023 01:00;22.056
02.01.2023 01:15;21.908
02.01.2023 01:30;20.147
02.01.2023 01:45;21.167
02.01.2023 02:00;20.964
02.01.2023 02:15;20.372
02.01.2023 02:30;20.430
02.01.2023 02:45;19.962
02.01.2023 03:00;19.117
02.01.2023 03:15;19.811
02.01.2023 03:30;19.873
02.01.2023 03:45;19.432
02.01.2023 04:00;20.386
02.01.2023 04:15;20.774
02.01.2023 04:30;21.650
02.01.2023 04:45;20.479
02.01.2023 05:00;22.774
02.01.2023 05:15;22.606
02.01.2023 05:30;23.881
02.01.2023 05:45;24.447
02.01.2023 06:00;27.182
02.01.2023 06:15;27.946
02.01.2023 06:30;28.872
02.01.2023 06:45;30.544
02.01.2023 07:00;31.644
02.01.2023 07:15;32.098
02.01.2023 07:30;33.686
02.01.2023 07:45;34.772
02.01.2023 08:00;35.599
02.01.2023 08:15;36.491
02.01.2023 08:30;38.938
02.01.2023 08:45;37.085
02.01.2023 09:00;40.869
02.01.2023 09:15;40.101
02.01.2023 09:30;40.655
02.01.2023 09:45;40.976
02.01.2023 10:00;43.362
02.01.2023 10:15;44.541
02.01.2023 10:30;42.596
02.01.2023 10:45;41.905
02.01.2023 11:00;44.988
02.01.2023 11:15;44.878
02.01.2023 11:30;45.802
02.01.2023 11:45;46.107
02.01.2023 12:00;46.357
02.01.2023 12:15;45.771
02.01.2023 12:30;47.397
02.01.2023 12:45;46.666
02.01.2023 13:00;45.546
02.01.2023 13:15;45.066
02.01.2023 13:30;45.209
02.01.2023 13:45;45.001
02.01.2023 14:00;44.448
02.01.2023 14:15;44.176
02.01.2023 14:30;44.417
02.01.2023 14:45;44.248
02.01.2023 15:00;44.904
02.01.2023 15:15;44.441
02.01.2023 15:30;44.467
02.01.2023 15:45;43.895
02.01.2023 16:00;43.370
02.01.2023 16:15;44.864
02.01.2023 16:30;45.725
02.01.2023 16:45;46.134
02.01.2023 17:00;46.404
02.01.2023 17:15;46.011
02.01.2023 17:30;47.431
02.01.2023 17:45;47.318
02.01.2023 18:00;45.927
02.01.2023 18:15;45.139
02.01.2023 18:30;44.714
02.01.2023 18:45;43.942
02.01.2023 19:00;43.948
02.01.2023 19:15;42.037
02.01.2023 19:30;42.608
02.01.2023 19:45;40.631
02.01.2023 20:00;39.020
02.01.2023 20:15;38.324
02.01.2023 20:30;36.959
02.01.2023 20:45;36.974
02.01.2023 21:00;35.518
02.01.2023 21:15;34.392
02.01.2023 21:30;33.907
02.01.2023 21:45;33.140
02.01.2023 22:00;31.880
02.01.2023 22:15;31.276
02.01.2023 22:30;29.927
02.01.2023 22:45;28.632
02.01.2023 23:00;28.238
02.01.2023 23:15;27.379
02.01.2023 23:30;26.123
02.01.2023 23:45;25.766
03.01.2023 00:00;25.479
03.01.2023 00:15;24.374
03.01.2023 00:30;23.803
03.01.2023 00:45;24.652
03.01.2023 01:00;22.778
03.01.2023 01:15;22.914
03.01.2023 01:30;22.464
03.01.2023 01:45;22.818
03.01.2023 02:00;21.964
03.01.2023 02:15;21.398
03.01.2023 02:30;20.314
03.01.2023 02:45;21.258
03.01.2023 03:00;22.405
03.01.2023 03:15;21.469
03.01.2023 03:30;20.542
03.01.2023 03:45;21.194
03.01.2023 04:00;21.486
03.01.2023 04:15;21.020
03.01.2023 04:30;22.264
03.01.2023 04:45;22.651
03.01.2023 05:00;23.547
03.01.2023 05:15;23.507
03.01.2023 05:30;24.628
03.01.2023 05:45;25.814
03.01.2023 06:00;27.105
03.01.2023 06:15;28.953
03.01.2023 06:30;30.379
03.01.2023 06:45;31.719
03.01.2023 07:00;32.560
03.01.2023 07:15;33.649
03.01.2023 07:30;35.471
03.01.2023 07:45;36.618
03.01.2023 08:00;37.592
03.01.2023 08:15;38.500
03.01.2023 08:30;38.460
03.01.2023 08:45;39.199
03.01.2023 09:00;40.127
03.01.2023 09:15;40.208
03.01.2023 09:30;41.096
03.01.2023 09:45;41.438
03.01.2023 10:00;41.784
03.01.2023 10:15;42.412
03.01.2023 10:30;42.854
03.01.2023 10:45;43.038
03.01.2023 11:00;42.112
03.01.2023 11:15;42.228
03.01.2023 11:30;43.373
03.01.2023 11:45;42.960
03.01.2023 12:00;43.603
03.01.2023 12:15;44.016
03.01.2023 12:30;43.863
03.01.2023 12:45;43.851
03.01.2023 13:00;43.283
03.01.2023 13:15;43.777
03.01.2023 13:30;44.044
03.01.2023 13:45;43.398
03.01.2023 14:00;43.924
03.01.2023 14:15;43.772
03.01.2023 14:30;44.220
03.01.2023 14:45;44.160
03.01.2023 15:00;44.143
03.01.2023 15:15;44.338
03.01.2023 15:30;44.951
03.01.2023 15:45;45.898
03.01.2023 16:00;45.899
03.01.2023 16:15;46.024
03.01.2023 16:30;46.641
03.01.2023 16:45;46.856
03.01.2023 17:00;47.397
03.01.2023 17:15;47.012
03.01.2023 17:30;47.757
03.01.2023 17:45;47.837
03.01.2023 18:00;46.821
03.01.2023 18:15;46.536
03.01.2023 18:30;45.552
03.01.2023 18:45;44.573
03.01.2023 19:00;43.464
03.01.2023 19:15;42.676
03.01.2023 19:30;42.259
03.01.2023 19:45;41.050
03.01.2023 20:00;40.108
03.01.2023 20:15;39.249
03.01.2023 20:30;38.369
03.01.2023 20:45;36.423
03.01.2023 21:00;36.192
03.01.2023 21:15;35.732
03.01.2023 21:30;33.941
03.01.2023 21:45;33.858
03.01.2023 22:00;32.793
03.01.2023 22:15;30.616
03.01.2023 22:30;29.570
03.01.2023 22:45;29.274
03.01.2023 23:00;28.507
03.01.2023 23:15;27.464
03.01.2023 23:30;26.414
03.01.2023 23:45;25.949
04.01.2023 00:00;25.620
04.01.2023 00:15;25.398
04.01.2023 00:30;24.367
04.01.2023 00:45;23.903
04.01.2023 01:00;23.900
04.01.2023 01:15;23.013
04.01.2023 01:30;23.249
04.01.2023 01:45;22.302
04.01.2023 02:00;21.681
04.01.2023 02:15;21.245
04.01.2023 02:30;21.626
04.01.2023 02:45;21.716
04.01.2023 03:00;21.421
04.01.2023 03:15;20.879
04.01.2023 03:30;21.875
04.01.2023 03:45;22.033
04.01.2023 04:00;21.689
04.01.2023 04:15;21.989
04.01.2023 04:30;22.329
04.01.2023 04:45;23.720
04.01.2023 05:00;23.406
04.01.2023 05:15;24.315
04.01.2023 05:30;25.616
04.01.2023 05:45;26.210
04.01.2023 06:00;28.953
04.01.2023 06:15;29.424
04.01.2023 06:30;30.713
04.01.2023 06:45;32.268
04.01.2023 07:00;33.838
04.01.2023 07:15;34.537
04.01.2023 07:30;36.158
04.01.2023 07:45;37.466
04.01.2023 08:00;38.410
04.01.2023 08:15;40.022
04.01.2023 08:30;40.396
04.01.2023 08:45;41.304
04.01.2023 09:00;41.105
04.01.2023 09:15;41.885
04.01.2023 09:30;43.728
04.01.2023 09:45;44.330
04.01.2023 10:00;43.818
04.01.2023 10:15;44.806
04.01.2023 10:30;45.091
04.01.2023 10:45;45.699
04.01.2023 11:00;46.079
04.01.2023 11:15;46.255
04.01.2023 11:30;46.717
04.01.2023 11:45;46.958
04.01.2023 12:00;47.719
04.01.2023 12:15;47.313
04.01.2023 12:30;47.761
04.01.2023 12:45;47.843
04.01.2023 13:00;47.830
04.01.2023 13:15;46.844
04.01.2023 13:30;46.957
04.01.2023 13:45;47.176
04.01.2023 14:00;45.367
04.01.2023 14:15;46.564
04.01.2023 14:30;45.791
04.01.2023 14:45;45.973
04.01.2023 15:00;45.998
04.01.2023 15:15;45.833
04.01.2023 15:30;44.668
04.01.2023 15:45;45.365
04.01.2023 16:00;46.231
04.01.2023 16:15;46.054
04.01.2023 16:30;45.387
04.01.2023 16:45;47.615
04.01.2023 17:00;48.156
04.01.2023 17:15;47.454
04.01.2023 17:30;47.703
04.01.2023 17:45;47.857
04.01.2023 18:00;47.445
04.01.2023 18:15;46.650
04.01.2023 18:30;46.775
04.01.2023 18:45;45.033
04.01.2023 19:00;44.842
04.01.2023 19:15;43.549
04.01.2023 19:30;42.644
04.01.2023 19:45;42.084
04.01.2023 20:00;40.763
04.01.2023 20:15;39.821
04.01.2023 20:30;37.575
04.01.2023 20:45;37.058
04.01.2023 21:00;36.288
04.01.2023 21:15;35.856
04.01.2023 21:30;34.696
04.01.2023 21:45;34.156
04.01.2023 22:00;32.741
04.01.2023 22:15;31.131
04.01.2023 22:30;30.625
04.01.2023 22:45;29.725
04.01.2023 23:00;28.114
04.01.2023 23:15;27.915
04.01.2023 23:30;26.909
04.01.2023 23:45;25.423
05.01.2023 00:00;26.801
05.01.2023 00:15;24.251
05.01.2023 00:30;24.589
05.01.2023 00:45;24.007
05.01.2023 01:00;22.931
05.01.2023 01:15;24.978
05.01.2023 01:30;22.150
05.01.2023 01:45;22.753
05.01.2023 02:00;21.910
05.01.2023 02:15;21.071
05.01.2023 02:30;23.214
05.01.2023 02:45;21.813
05.01.2023 03:00;20.450
05.01.2023 03:15;21.469
05.01.2023 03:30;21.616
05.01.2023 03:45;22.278
05.01.2023 04:00;20.898
05.01.2023 04:15;22.869
05.01.2023 04:30;21.446
05.01.2023 04:45;23.606
05.01.2023 05:00;23.683
05.01.2023 05:15;24.738
05.01.2023 05:30;25.109
05.01.2023 05:45;26.350
05.01.2023 06:00;28.192
05.01.2023 06:15;29.938
05.01.2023 06:30;31.132
05.01.2023 06:45;32.194
05.01.2023 07:00;33.560
05.01.2023 07:15;34.562
05.01.2023 07:30;36.258
05.01.2023 07:45;38.503
05.01.2023 08:00;39.189
05.01.2023 08:15;39.345
05.01.2023 08:30;39.182
05.01.2023 08:45;39.113
05.01.2023 09:00;40.187
05.01.2023 09:15;40.596
05.01.2023 09:30;40.886
05.01.2023 09:45;40.943
05.01.2023 10:00;42.411
05.01.2023 10:15;42.640
05.01.2023 10:30;42.891
05.01.2023 10:45;41.643
05.01.2023 11:00;41.963
05.01.2023 11:15;43.426
05.01.2023 11:30;42.135
05.01.2023 11:45;43.252
05.01.2023 12:00;43.814
05.01.2023 12:15;44.549
05.01.2023 12:30;43.907
05.01.2023 12:45;43.331
05.01.2023 13:00;42.146
05.01.2023 13:15;43.644
05.01.2023 13:30;42.704
05.01.2023 13:45;42.491
05.01.2023 14:00;42.522
05.01.2023 14:15;41.717
05.01.2023 14:30;41.964
05.01.2023 14:45;42.271
05.01.2023 15:00;42.609
05.01.2023 15:15;42.020
05.01.2023 15:30;42.673
05.01.2023 15:45;42.908
05.01.2023 16:00;42.449
05.01.2023 16:15;43.093
05.01.2023 16:30;43.988
05.01.2023 16:45;45.462
05.01.2023 17:00;46.297
05.01.2023 17:15;47.009
05.01.2023 17:30;47.369
05.01.2023 17:45;47.470
05.01.2023 18:00;46.178
05.01.2023 18:15;46.100
05.01.2023 18:30;45.934
05.01.2023 18:45;44.766
05.01.2023 19:00;44.295
05.01.2023 19:15;42.906
05.01.2023 19:30;42.213
05.01.2023 19:45;41.174
05.01.2023 20:00;39.795
05.01.2023 20:15;38.720
05.01.2023 20:30;37.981
05.01.2023 20:45;36.475
05.01.2023 21:00;35.748
05.01.2023 21:15;34.749
05.01.2023 21:30;33.865
05.01.2023 21:45;32.801
05.01.2023 22:00;31.927
05.01.2023 22:15;31.212
05.01.2023 22:30;29.877
05.01.2023 22:45;28.372
05.01.2023 23:00;27.369
05.01.2023 23:15;27.147
05.01.2023 23:30;25.752
05.01.2023 23:45;24.960
06.01.2023 00:00;25.524
06.01.2023 00:15;23.991
06.01.2023 00:30;23.996
06.01.2023 00:45;23.444
06.01.2023 01:00;23.005
06.01.2023 01:15;21.560
06.01.2023 01:30;22.015
06.01.2023 01:45;22.366
06.01.2023 02:00;21.566
06.01.2023 02:15;21.526
06.01.2023 02:30;21.034
06.01.2023 02:45;21.376
06.01.2023 03:00;21.485
06.01.2023 03:15;21.125
06.01.2023 03:30;20.985
06.01.2023 03:45;20.851
06.01.2023 04:00;21.268
06.01.2023 04:15;21.295
06.01.2023 04:30;21.704
06.01.2023 04:45;22.278
06.01.2023 05:00;22.757
06.01.2023 05:15;24.164
06.01.2023 05:30;24.753
06.01.2023 05:45;25.612
06.01.2023 06:00;27.581
06.01.2023 06:15;29.816
06.01.2023 06:30;30.080
06.01.2023 06:45;31.058
06.01.2023 07:00;32.421
06.01.2023 07:15;34.147
06.01.2023 07:30;35.344
06.01.2023 07:45;37.393
06.01.2023 08:00;38.518
06.01.2023 08:15;39.500
06.01.2023 08:30;39.490
06.01.2023 08:45;40.401
06.01.2023 09:00;40.375
06.01.2023 09:15;41.150
06.01.2023 09:30;42.130
06.01.2023 09:45;42.868
06.01.2023 10:00;43.250
06.01.2023 10:15;45.017
06.01.2023 10:30;45.288
06.01.2023 10:45;43.626
06.01.2023 11:00;42.610
06.01.2023 11:15;43.416
06.01.2023 11:30;42.447
06.01.2023 11:45;42.725
06.01.2023 12:00;43.369
06.01.2023 12:15;42.152
06.01.2023 12:30;42.687
06.01.2023 12:45;42.718
06.01.2023 13:00;40.632
06.01.2023 13:15;42.606
06.01.2023 13:30;43.339
06.01.2023 13:45;40.902
06.01.2023 14:00;41.385
06.01.2023 14:15;40.024
06.01.2023 14:30;42.621
06.01.2023 14:45;41.626
06.01.2023 15:00;42.093
06.01.2023 15:15;42.565
06.01.2023 15:30;42.228
06.01.2023 15:45;42.270
06.01.2023 16:00;42.752
06.01.2023 16:15;43.976
06.01.2023 16:30;44.427
06.01.2023 16:45;46.000
06.01.2023 17:00;46.408
06.01.2023 17:15;46.411
06.01.2023 17:30;46.435
06.01.2023 17:45;46.582
06.01.2023 18:00;45.740
06.01.2023 18:15;46.247
06.01.2023 18:30;45.144
06.01.2023 18:45;44.486
06.01.2023 19:00;43.860
06.01.2023 19:15;42.891
06.01.2023 19:30;41.203
06.01.2023 19:45;41.355
06.01.2023 20:00;39.571
06.01.2023 20:15;39.075
06.01.2023 20:30;37.644
06.01.2023 20:45;36.779
06.01.2023 21:00;35.968
06.01.2023 21:15;35.176
06.01.2023 21:30;34.237
06.01.2023 21:45;33.001
06.01.2023 22:00;32.341
06.01.2023 22:15;31.341
06.01.2023 22:30;30.827
06.01.2023 22:45;29.557
06.01.2023 23:00;28.674
06.01.2023 23:15;27.655
06.01.2023 23:30;27.277
06.01.2023 23:45;26.592
07.01.2023 00:00;25.897
07.01.2023 00:15;24.659
07.01.2023 00:30;25.084
07.01.2023 00:45;24.389
07.01.2023 01:00;23.505
07.01.2023 01:15;22.957
07.01.2023 01:30;22.834
07.01.2023 01:45;21.994
07.01.2023 02:00;20.719
07.01.2023 02:15;21.917
07.01.2023 02:30;21.011
07.01.2023 02:45;21.032
07.01.2023 03:00;20.954
07.01.2023 03:15;20.728
07.01.2023 03:30;21.244
07.01.2023 03:45;20.442
07.01.2023 04:00;20.398
07.01.2023 04:15;20.774
07.01.2023 04:30;20.640
07.01.2023 04:45;21.568
07.01.2023 05:00;21.466
07.01.2023 05:15;22.032
07.01.2023 05:30;22.864
07.01.2023 05:45;23.803
07.01.2023 06:00;23.652
07.01.2023 06:15;24.889
07.01.2023 06:30;24.960
07.01.2023 06:45;26.182
07.01.2023 07:00;26.713
07.01.2023 07:15;26.442
07.01.2023 07:30;28.289
07.01.2023 07:45;28.823
07.01.2023 08:00;29.992
07.01.2023 08:15;30.519
07.01.2023 08:30;31.836
07.01.2023 08:45;32.235
07.01.2023 09:00;33.106
07.01.2023 09:15;34.377
07.01.2023 09:30;34.566
07.01.2023 09:45;36.340
07.01.2023 10:00;36.791
07.01.2023 10:15;37.035
07.01.2023 10:30;37.773
07.01.2023 10:45;38.724
07.01.2023 11:00;38.882
07.01.2023 11:15;38.528
07.01.2023 11:30;39.101
07.01.2023 11:45;39.681
07.01.2023 12:00;39.293
07.01.2023 12:15;40.961
07.01.2023 12:30;39.937
07.01.2023 12:45;40.206
07.01.2023 13:00;40.489
07.01.2023 13:15;39.757
07.01.2023 13:30;40.490
07.01.2023 13:45;40.239
07.01.2023 14:00;40.139
07.01.2023 14:15;40.113
07.01.2023 14:30;39.957
07.01.2023 14:45;39.632
07.01.2023 15:00;39.962
07.01.2023 15:15;38.855
07.01.2023 15:30;39.281
07.01.2023 15:45;39.134
07.01.2023 16:00;38.812
07.01.2023 16:15;41.096
07.01.2023 16:30;41.439
07.01.2023 16:45;42.237
07.01.2023 17:00;43.309
07.01.2023 17:15;43.667
07.01.2023 17:30;43.088
07.01.2023 17:45;43.870
07.01.2023 18:00;44.489
07.01.2023 18:15;43.250
07.01.2023 18:30;43.351
07.01.2023 18:45;42.535
07.01.2023 19:00;41.424
07.01.2023 19:15;41.030
07.01.2023 19:30;40.398
07.01.2023 19:45;39.129
07.01.2023 20:00;38.635
07.01.2023 20:15;37.772
07.01.2023 20:30;35.629
07.01.2023 20:45;36.152
07.01.2023 21:00;35.213
07.01.2023 21:15;33.428
07.01.2023 21:30;32.738
07.01.2023 21:45;31.992
07.01.2023 22:00;31.345
07.01.2023 22:15;30.548
07.01.2023 22:30;29.406
07.01.2023 22:45;28.982
07.01.2023 23:00;28.444
07.01.2023 23:15;27.029
07.01.2023 23:30;26.235
07.01.2023 23:45;25.908
08.01.2023 00:00;25.693
08.01.2023 00:15;24.758
08.01.2023 00:30;24.041
08.01.2023 00:45;23.529
08.01.2023 01:00;23.405
08.01.2023 01:15;22.570
08.01.2023 01:30;21.677
08.01.2023 01:45;21.761
08.01.2023 02:00;23.320
08.01.2023 02:15;20.830
08.01.2023 02:30;21.052
08.01.2023 02:45;20.977
08.01.2023 03:00;21.566
08.01.2023 03:15;20.213
08.01.2023 03:30;19.977
08.01.2023 03:45;20.684
08.01.2023 04:00;18.906
08.01.2023 04:15;20.907
08.01.2023 04:30;19.484
08.01.2023 04:45;19.645
08.01.2023 05:00;21.254
08.01.2023 05:15;20.526
08.01.2023 05:30;20.269
08.01.2023 05:45;21.405
08.01.2023 06:00;21.059
08.01.2023 06:15;22.005
08.01.2023 06:30;22.250
08.01.2023 06:45;21.921
08.01.2023 07:00;22.803
08.01.2023 07:15;23.879
08.01.2023 07:30;23.361
08.01.2023 07:45;24.516
08.01.2023 08:00;25.020
08.01.2023 08:15;27.549
08.01.2023 08:30;27.735
08.01.2023 08:45;27.905
08.01.2023 09:00;29.276
08.01.2023 09:15;29.565
08.01.2023 09:30;30.364
08.01.2023 09:45;30.123
08.01.2023 10:00;32.329
08.01.2023 10:15;34.059
08.01.2023 10:30;33.742
08.01.2023 10:45;33.611
08.01.2023 11:00;34.611
08.01.2023 11:15;35.435
08.01.2023 11:30;35.755
08.01.2023 11:45;36.787
08.01.2023 12:00;35.958
08.01.2023 12:15;36.646
08.01.2023 12:30;36.984
08.01.2023 12:45;36.886
08.01.2023 13:00;36.163
08.01.2023 13:15;34.883
08.01.2023 13:30;36.518
08.01.2023 13:45;35.032
08.01.2023 14:00;33.781
08.01.2023 14:15;34.021
08.01.2023 14:30;35.265
08.01.2023 14:45;35.268
08.01.2023 15:00;34.290
08.01.2023 15:15;34.818
08.01.2023 15:30;37.183
08.01.2023 15:45;35.690
08.01.2023 16:00;35.629
08.01.2023 16:15;36.136
08.01.2023 16:30;37.591
08.01.2023 16:45;38.834
08.01.2023 17:00;39.756
08.01.2023 17:15;41.818
08.01.2023 17:30;41.866
08.01.2023 17:45;41.031
08.01.2023 18:00;40.459
08.01.2023 18:15;40.257
08.01.2023 18:30;40.526
08.01.2023 18:45;39.987
08.01.2023 19:00;39.244
08.01.2023 19:15;37.851
08.01.2023 19:30;37.566
08.01.2023 19:45;36.903
08.01.2023 20:00;36.723
08.01.2023 20:15;36.410
08.01.2023 20:30;35.332
08.01.2023 20:45;34.194
08.01.2023 21:00;32.587
08.01.2023 21:15;33.678
08.01.2023 21:30;30.886
08.01.2023 21:45;30.770
08.01.2023 22:00;30.348
08.01.2023 22:15;29.752
08.01.2023 22:30;27.993
08.01.2023 22:45;27.018
08.01.2023 23:00;26.350
08.01.2023 23:15;25.617
08.01.2023 23:30;24.350
08.01.2023 23:45;24.578
09.01.2023 00:00;24.692
09.01.2023 00:15;23.059
09.01.2023 00:30;22.011
09.01.2023 00:45;22.756
09.01.2023 01:00;22.683
09.01.2023 01:15;21.290
09.01.2023 01:30;21.457
09.01.2023 01:45;20.748
09.01.2023 02:00;21.177
09.01.2023 02:15;20.642
09.01.2023 02:30;19.152
09.01.2023 02:45;20.171
09.01.2023 03:00;20.333
09.01.2023 03:15;21.226
09.01.2023 03:30;19.557
09.01.2023 03:45;19.750
09.01.2023 04:00;21.511
09.01.2023 04:15;22.064
09.01.2023 04:30;22.141
09.01.2023 04:45;22.533
09.01.2023 05:00;24.034
09.01.2023 05:15;24.126
09.01.2023 05:30;24.758
09.01.2023 05:45;26.226
09.01.2023 06:00;28.998
09.01.2023 06:15;29.691
09.01.2023 06:30;32.531
09.01.2023 06:45;33.979
09.01.2023 07:00;35.469
09.01.2023 07:15;37.268
09.01.2023 07:30;37.099
09.01.2023 07:45;40.062
09.01.2023 08:00;41.311
09.01.2023 08:15;41.149
09.01.2023 08:30;41.148
09.01.2023 08:45;41.430
09.01.2023 09:00;41.845
09.01.2023 09:15;42.424
09.01.2023 09:30;42.580
09.01.2023 09:45;44.219
09.01.2023 10:00;45.698
09.01.2023 10:15;45.066
09.01.2023 10:30;44.140
09.01.2023 10:45;44.965
09.01.2023 11:00;44.764
09.01.2023 11:15;44.699
09.01.2023 11:30;45.330
09.01.2023 11:45;46.660
09.01.2023 12:00;45.665
09.01.2023 12:15;46.306
09.01.2023 12:30;46.226
09.01.2023 12:45;46.272
09.01.2023 13:00;46.007
09.01.2023 13:15;46.008
09.01.2023 13:30;45.626
09.01.2023 13:45;45.173
09.01.2023 14:00;45.464
09.01.2023 14:15;45.029
09.01.2023 14:30;44.389
09.01.2023 14:45;44.744
09.01.2023 15:00;44.690
09.01.2023 15:15;44.481
09.01.2023 15:30;44.142
09.01.2023 15:45;43.869
09.01.2023 16:00;44.301
09.01.2023 16:15;45.176
09.01.2023 16:30;45.340
09.01.2023 16:45;46.564
09.01.2023 17:00;47.474
09.01.2023 17:15;47.128
09.01.2023 17:30;47.000
09.01.2023 17:45;47.473
09.01.2023 18:00;46.805
09.01.2023 18:15;46.366
09.01.2023 18:30;46.306
09.01.2023 18:45;44.680
09.01.2023 19:00;44.331
09.01.2023 19:15;42.653
09.01.2023 19:30;42.633
09.01.2023 19:45;40.988
09.01.2023 20:00;40.792
09.01.2023 20:15;38.387
09.01.2023 20:30;37.538
09.01.2023 20:45;36.120
09.01.2023 21:00;35.487
09.01.2023 21:15;35.219
09.01.2023 21:30;33.133
09.01.2023 21:45;32.574
09.01.2023 22:00;31.292
09.01.2023 22:15;29.876
09.01.2023 22:30;29.594
09.01.2023 22:45;27.959
09.01.2023 23:00;27.312
09.01.2023 23:15;25.946
09.01.2023 23:30;25.871
09.01.2023 23:45;24.932
10.01.2023 00:00;24.276
10.01.2023 00:15;24.034
10.01.2023 00:30;23.704
10.01.2023 00:45;23.312
10.01.2023 01:00;22.222
10.01.2023 01:15;21.887
10.01.2023 01:30;21.232
10.01.2023 01:45;21.118
10.01.2023 02:00;21.005
10.01.2023 02:15;20.959
10.01.2023 02:30;20.506
10.01.2023 02:45;21.331
10.01.2023 03:00;20.036
10.01.2023 03:15;21.203
10.01.2023 03:30;20.896
10.01.2023 03:45;21.233
10.01.2023 04:00;20.892
10.01.2023 04:15;21.162
10.01.2023 04:30;21.402
10.01.2023 04:45;22.187
10.01.2023 05:00;23.825
10.01.2023 05:15;24.631
10.01.2023 05:30;25.382
10.01.2023 05:45;26.676
10.01.2023 06:00;28.834
10.01.2023 06:15;30.605
10.01.2023 06:30;32.252
10.01.2023 06:45;33.834
10.01.2023 07:00;35.350
10.01.2023 07:15;36.536
10.01.2023 07:30;36.909
10.01.2023 07:45;39.938
10.01.2023 08:00;41.298
10.01.2023 08:15;41.431
10.01.2023 08:30;40.809
10.01.2023 08:45;41.341
10.01.2023 09:00;42.335
10.01.2023 09:15;41.964
10.01.2023 09:30;42.313
10.01.2023 09:45;43.472
10.01.2023 10:00;44.339
10.01.2023 10:15;43.346
10.01.2023 10:30;43.847
10.01.2023 10:45;44.177
10.01.2023 11:00;44.876
10.01.2023 11:15;44.842
10.01.2023 11:30;46.474
10.01.2023 11:45;45.838
10.01.2023 12:00;45.946
10.01.2023 12:15;46.275
10.01.2023 12:30;46.224
10.01.2023 12:45;44.969
10.01.2023 13:00;44.321
10.01.2023 13:15;45.093
10.01.2023 13:30;44.563
10.01.2023 13:45;44.386
10.01.2023 14:00;44.578
10.01.2023 14:15;43.902
10.01.2023 14:30;43.794
10.01.2023 14:45;43.829
10.01.2023 15:00;43.689
10.01.2023 15:15;43.517
10.01.2023 15:30;43.802
10.01.2023 15:45;43.468
10.01.2023 16:00;44.486
10.01.2023 16:15;44.545
10.01.2023 16:30;45.376
10.01.2023 16:45;46.270
10.01.2023 17:00;47.052
10.01.2023 17:15;48.572
10.01.2023 17:30;47.728
10.01.2023 17:45;47.774
10.01.2023 18:00;47.867
10.01.2023 18:15;47.431
10.01.2023 18:30;46.967
10.01.2023 18:45;46.206
10.01.2023 19:00;45.977
10.01.2023 19:15;43.162
10.01.2023 19:30;42.622
10.01.2023 19:45;42.156
10.01.2023 20:00;41.250
10.01.2023 20:15;41.111
10.01.2023 20:30;39.502
10.01.2023 20:45;37.539
10.01.2023 21:00;36.281
10.01.2023 21:15;35.525
10.01.2023 21:30;34.610
10.01.2023 21:45;33.598